| time (UTC) | temp C | wind direction | speed KPH | gust KPH | rain 1hr cm | rain 24hr cm | rain mn cm | humidity % | barometer mb |
| 20260509230016 | 25 | 248 | 8.0 | 16.1 | 0.00 | 0.00 | 0.00 | 43 | 1008.7 |
| 20260509225016 | 25 | 248 | 6.4 | 14.5 | 0.00 | 0.00 | 0.00 | 43 | 1008.8 |
| 20260509224016 | 25 | 248 | 6.4 | 16.1 | 0.00 | 0.00 | 0.00 | 44 | 1008.6 |
| 20260509223016 | 25 | 248 | 6.4 | 14.5 | 0.00 | 0.00 | 0.00 | 44 | 1008.6 |
| 20260509222056 | 25 | 248 | 8.0 | 19.3 | 0.00 | 0.00 | 0.00 | 42 | 1008.7 |
| 20260509221016 | 25 | 248 | 8.0 | 17.7 | 0.00 | 0.00 | 0.00 | 44 | 1008.7 |
| 20260509220036 | 26 | 248 | 9.7 | 19.3 | 0.00 | 0.00 | 0.00 | 41 | 1008.7 |
| 20260509215036 | 26 | 248 | 4.8 | 16.1 | 0.00 | 0.00 | 0.00 | 42 | 1008.7 |
| 20260509214016 | 26 | 248 | 4.8 | 17.7 | 0.00 | 0.00 | 0.00 | 42 | 1008.7 |
| 20260509213016 | 26 | 248 | 8.0 | 22.5 | 0.00 | 0.00 | 0.00 | 41 | 1008.8 |
| 20260509212016 | 26 | 248 | 4.8 | 14.5 | 0.00 | 0.00 | 0.00 | 46 | 1008.8 |
| 20260509211016 | 26 | 248 | 6.4 | 17.7 | 0.00 | 0.00 | 0.00 | 46 | 1008.8 |
| 20260509210016 | 26 | 248 | 6.4 | 16.1 | 0.00 | 0.00 | 0.00 | 46 | 1008.8 |
| 20260509205016 | 26 | 248 | 8.0 | 19.3 | 0.00 | 0.00 | 0.00 | 41 | 1008.8 |
| 20260509204036 | 26 | 248 | 6.4 | 17.7 | 0.00 | 0.00 | 0.00 | 44 | 1009.0 |
| 20260509203036 | 26 | 248 | 6.4 | 17.7 | 0.00 | 0.00 | 0.00 | 48 | 1009.0 |
| 20260509202036 | 26 | 248 | 6.4 | 16.1 | 0.00 | 0.00 | 0.00 | 52 | 1009.0 |
| 20260509201016 | 26 | 248 | 6.4 | 14.5 | 0.00 | 0.00 | 0.00 | 49 | 1009.2 |
| 20260509200036 | 26 | 248 | 8.0 | 17.7 | 0.00 | 0.00 | 0.00 | 46 | 1009.2 |
| 20260509195016 | 26 | 248 | 3.2 | 11.3 | 0.00 | 0.00 | 0.00 | 49 | 1009.2 |
| 20260509194016 | 26 | 248 | 4.8 | 11.3 | 0.00 | 0.00 | 0.00 | 46 | 1009.4 |
| 20260509193016 | 26 | 248 | 6.4 | 16.1 | 0.00 | 0.00 | 0.00 | 46 | 1009.4 |
| 20260509192017 | 25 | 248 | 4.8 | 14.5 | 0.00 | 0.00 | 0.00 | 49 | 1009.4 |
| 20260509191016 | 25 | 248 | 6.4 | 17.7 | 0.00 | 0.00 | 0.00 | 50 | 1009.5 |
| 20260509190016 | 25 | 248 | 6.4 | 14.5 | 0.00 | 0.00 | 0.00 | 53 | 1009.5 |
| 20260509185016 | 25 | 248 | 6.4 | 14.5 | 0.00 | 0.00 | 0.00 | 55 | 1009.5 |
| 20260509184016 | 25 | 248 | 4.8 | 12.9 | 0.00 | 0.00 | 0.00 | 52 | 1009.6 |
| 20260509183016 | 25 | 248 | 4.8 | 14.5 | 0.00 | 0.00 | 0.00 | 51 | 1009.7 |
| 20260509182036 | 25 | 248 | 6.4 | 14.5 | 0.00 | 0.00 | 0.00 | 54 | 1009.8 |
| 20260509181016 | 24 | 248 | 4.8 | 14.5 | 0.00 | 0.00 | 0.00 | 60 | 1009.7 |
| 20260509180016 | 24 | 248 | 4.8 | 16.1 | 0.00 | 0.00 | 0.00 | 52 | 1009.7 |
| 20260509175036 | 24 | 248 | 4.8 | 19.3 | 0.00 | 0.00 | 0.00 | 52 | 1009.9 |
| 20260509174016 | 24 | 248 | 6.4 | 17.7 | 0.00 | 0.00 | 0.00 | 55 | 1010.0 |
| 20260509173016 | 23 | 248 | 6.4 | 14.5 | 0.00 | 0.00 | 0.00 | 55 | 1009.9 |
| 20260509172036 | 23 | 248 | 4.8 | 16.1 | 0.00 | 0.00 | 0.00 | 56 | 1009.8 |
| 20260509171016 | 23 | 248 | 6.4 | 17.7 | 0.00 | 0.00 | 0.00 | 61 | 1009.9 |
| 20260509170016 | 23 | 225 | 3.2 | 9.7 | 0.00 | 0.00 | 0.00 | 59 | 1009.9 |
| 20260509165016 | 22 | 248 | 6.4 | 19.3 | 0.00 | 0.00 | 0.00 | 58 | 1010.1 |
| 20260509164016 | 22 | 248 | 4.8 | 12.9 | 0.00 | 0.00 | 0.00 | 58 | 1010.0 |
| 20260509163016 | 22 | 225 | 4.8 | 14.5 | 0.00 | 0.00 | 0.00 | 58 | 1010.0 |
| 20260509162116 | 22 | 225 | 4.8 | 14.5 | 0.00 | 0.00 | 0.00 | 56 | 1009.8 |
| 20260509161016 | 22 | 248 | 4.8 | 14.5 | 0.00 | 0.00 | 0.00 | 57 | 1009.8 |
| 20260509160016 | 22 | 248 | 6.4 | 14.5 | 0.00 | 0.00 | 0.00 | 59 | 1009.9 |
| 20260509155016 | 22 | 248 | 3.2 | 11.3 | 0.00 | 0.00 | 0.00 | 60 | 1009.9 |
| 20260509154036 | 21 | 248 | 4.8 | 12.9 | 0.00 | 0.00 | 0.00 | 63 | 1009.7 |
| 20260509153016 | 22 | 248 | 6.4 | 17.7 | 0.00 | 0.00 | 0.00 | 64 | 1009.6 |
| 20260509152016 | 21 | 248 | 6.4 | 12.9 | 0.00 | 0.00 | 0.00 | 67 | 1009.7 |
| 20260509151016 | 21 | 248 | 6.4 | 14.5 | 0.00 | 0.00 | 0.00 | 65 | 1009.7 |
| 20260509150016 | 21 | 248 | 4.8 | 16.1 | 0.00 | 0.00 | 0.00 | 63 | 1009.7 |
| 20260509145016 | 21 | 248 | 4.8 | 11.3 | 0.00 | 0.00 | 0.00 | 64 | 1009.5 |
| 20260509144016 | 20 | 248 | 6.4 | 11.3 | 0.00 | 0.00 | 0.00 | 64 | 1009.5 |
| 20260509143056 | 20 | 248 | 4.8 | 12.9 | 0.00 | 0.00 | 0.00 | 67 | 1009.6 |
| 20260509142016 | 19 | 248 | 4.8 | 11.3 | 0.00 | 0.00 | 0.00 | 69 | 1009.5 |
| 20260509141016 | 19 | 248 | 4.8 | 12.9 | 0.00 | 0.00 | 0.00 | 70 | 1009.5 |
| 20260509140036 | 18 | 248 | 4.8 | 9.7 | 0.00 | 0.00 | 0.00 | 74 | 1009.4 |
| 20260509135016 | 17 | 248 | 4.8 | 11.3 | 0.00 | 0.00 | 0.00 | 77 | 1009.4 |
| 20260509134036 | 16 | 248 | 3.2 | 9.7 | 0.00 | 0.00 | 0.00 | 82 | 1009.4 |
| 20260509133016 | 16 | 225 | 3.2 | 8.0 | 0.00 | 0.00 | 0.00 | 84 | 1009.4 |
| 20260509132016 | 15 | 180 | 1.6 | 6.4 | 0.00 | 0.00 | 0.00 | 85 | 1009.4 |
| 20260509131016 | 14 | 0.0 | 0.0 | 0.00 | 0.00 | 0.00 | 85 | 1009.3 | |
| 20260509130016 | 14 | 0.0 | 0.0 | 0.00 | 0.00 | 0.00 | 85 | 1009.2 | |
| 20260509125016 | 14 | 0.0 | 0.0 | 0.00 | 0.00 | 0.00 | 85 | 1009.1 | |
| 20260509124016 | 14 | 0.0 | 0.0 | 0.00 | 0.00 | 0.00 | 85 | 1009.0 | |
| 20260509123036 | 13 | 0.0 | 0.0 | 0.00 | 0.00 | 0.00 | 84 | 1009.2 | |
| 20260509122016 | 13 | 0.0 | 0.0 | 0.00 | 0.00 | 0.00 | 84 | 1009.4 | |
| 20260509121016 | 13 | 0.0 | 0.0 | 0.00 | 0.00 | 0.00 | 84 | 1009.3 | |
| 20260509120036 | 13 | 0.0 | 0.0 | 0.00 | 0.00 | 0.00 | 84 | 1009.3 | |
| 20260509115016 | 13 | 0.0 | 0.0 | 0.00 | 0.00 | 0.00 | 84 | 1009.2 | |
| 20260509114016 | 13 | 0.0 | 0.0 | 0.00 | 0.00 | 0.00 | 84 | 1008.9 | |
| 20260509113016 | 13 | 0.0 | 0.0 | 0.00 | 0.00 | 0.00 | 84 | 1008.7 | |
| 20260509112016 | 13 | 0.0 | 0.0 | 0.00 | 0.00 | 0.00 | 83 | 1008.6 | |
| 20260509111016 | 13 | 0.0 | 0.0 | 0.00 | 0.00 | 0.00 | 83 | 1008.6 | |
| 20260509110036 | 13 | 0.0 | 0.0 | 0.00 | 0.00 | 0.00 | 83 | 1008.6 | |
| 20260509105016 | 13 | 0.0 | 0.0 | 0.00 | 0.00 | 0.00 | 83 | 1008.6 | |
| 20260509104016 | 14 | 0.0 | 4.8 | 0.00 | 0.00 | 0.00 | 83 | 1008.4 | |
| 20260509103016 | 14 | 0.0 | 0.0 | 0.00 | 0.00 | 0.00 | 82 | 1008.2 | |
| 20260509102016 | 14 | 0.0 | 0.0 | 0.00 | 0.00 | 0.00 | 81 | 1008.4 | |
| 20260509101016 | 14 | 0.0 | 3.2 | 0.00 | 0.00 | 0.00 | 80 | 1008.5 | |
| 20260509100016 | 14 | 0.0 | 1.6 | 0.00 | 0.00 | 0.00 | 79 | 1008.8 | |
| 20260509095056 | 14 | 0.0 | 1.6 | 0.00 | 0.00 | 0.00 | 79 | 1008.7 | |
| 20260509094016 | 15 | 0.0 | 1.6 | 0.00 | 0.00 | 0.00 | 79 | 1008.8 | |
| 20260509093016 | 15 | 45 | 1.6 | 6.4 | 0.00 | 0.00 | 0.00 | 80 | 1008.7 |
| 20260509092016 | 15 | 45 | 1.6 | 6.4 | 0.00 | 0.00 | 0.00 | 79 | 1008.6 |
| 20260509091016 | 15 | 45 | 1.6 | 6.4 | 0.00 | 0.00 | 0.00 | 78 | 1009.1 |
| 20260509090016 | 15 | 0.0 | 6.4 | 0.00 | 0.00 | 0.00 | 77 | 1009.1 | |
| 20260509085016 | 15 | 0.0 | 0.0 | 0.00 | 0.00 | 0.00 | 75 | 1009.3 | |
| 20260509084016 | 15 | 0.0 | 0.0 | 0.00 | 0.00 | 0.00 | 73 | 1009.2 | |
| 20260509083016 | 15 | 0.0 | 0.0 | 0.00 | 0.00 | 0.00 | 72 | 1009.0 | |
| 20260509082036 | 15 | 0.0 | 0.0 | 0.00 | 0.00 | 0.00 | 70 | 1008.8 | |
| 20260509081016 | 15 | 0.0 | 0.0 | 0.00 | 0.00 | 0.00 | 69 | 1008.9 | |
| 20260509080016 | 15 | 0.0 | 0.0 | 0.00 | 0.00 | 0.00 | 67 | 1008.9 | |
| 20260509075016 | 15 | 0.0 | 0.0 | 0.00 | 0.00 | 0.00 | 66 | 1009.0 | |
| 20260509074016 | 15 | 0.0 | 0.0 | 0.00 | 0.00 | 0.00 | 65 | 1009.0 | |
| 20260509073056 | 15 | 0.0 | 0.0 | 0.00 | 0.00 | 0.00 | 63 | 1008.8 | |
| 20260509072016 | 15 | 0.0 | 0.0 | 0.00 | 0.00 | 0.00 | 62 | 1008.9 | |
| 20260509071016 | 15 | 0.0 | 0.0 | 0.00 | 0.00 | 0.00 | 62 | 1009.1 | |
| 20260509070016 | 15 | 0.0 | 0.0 | 0.00 | 0.00 | 0.00 | 62 | 1009.0 | |
| 20260509065016 | 15 | 0.0 | 0.0 | 0.00 | 0.00 | 0.00 | 62 | 1009.1 | |
| 20260509064016 | 15 | 0.0 | 0.0 | 0.00 | 0.00 | 0.00 | 62 | 1009.3 | |
| 20260509063016 | 15 | 0.0 | 0.0 | 0.00 | 0.00 | 0.00 | 62 | 1009.4 | |
| 20260509062036 | 15 | 0.0 | 0.0 | 0.00 | 0.00 | 0.00 | 62 | 1009.6 | |
| 20260509061016 | 15 | 0.0 | 0.0 | 0.00 | 0.00 | 0.00 | 61 | 1009.6 | |
| 20260509060016 | 15 | 0.0 | 0.0 | 0.00 | 0.00 | 0.00 | 61 | 1009.6 | |
| 20260509055016 | 16 | 0.0 | 0.0 | 0.00 | 0.00 | 0.00 | 61 | 1009.6 | |
| 20260509054016 | 16 | 0.0 | 0.0 | 0.00 | 0.00 | 0.00 | 60 | 1009.7 | |
| 20260509053016 | 16 | 0.0 | 0.0 | 0.00 | 0.00 | 0.00 | 60 | 1009.6 | |
| 20260509052036 | 15 | 0.0 | 0.0 | 0.00 | 0.00 | 0.00 | 61 | 1009.5 | |
| 20260509051056 | 16 | 0.0 | 0.0 | 0.00 | 0.00 | 0.00 | 61 | 1009.5 | |
| 20260509050016 | 16 | 0.0 | 0.0 | 0.00 | 0.00 | 0.00 | 61 | 1009.5 | |
| 20260509045016 | 16 | 0.0 | 0.0 | 0.00 | 0.00 | 0.00 | 61 | 1009.5 | |
| 20260509044016 | 16 | 0.0 | 0.0 | 0.00 | 0.00 | 0.00 | 61 | 1009.5 | |
| 20260509043016 | 16 | 0.0 | 0.0 | 0.00 | 0.00 | 0.00 | 60 | 1009.5 | |
| 20260509042016 | 16 | 0.0 | 0.0 | 0.00 | 0.00 | 0.00 | 60 | 1009.5 | |
| 20260509041016 | 16 | 0.0 | 0.0 | 0.00 | 0.00 | 0.00 | 60 | 1009.6 | |
| 20260509040016 | 16 | 0.0 | 0.0 | 0.00 | 0.00 | 0.00 | 60 | 1009.6 | |
| 20260509035016 | 16 | 0.0 | 0.0 | 0.00 | 0.00 | 0.00 | 60 | 1009.7 | |
| 20260509034016 | 16 | 0.0 | 0.0 | 0.00 | 0.00 | 0.00 | 59 | 1009.8 | |
| 20260509033016 | 16 | 0.0 | 0.0 | 0.00 | 0.00 | 0.00 | 59 | 1009.9 | |
| 20260509032017 | 16 | 0.0 | 0.0 | 0.00 | 0.00 | 0.00 | 58 | 1009.9 | |
| 20260509031056 | 16 | 0.0 | 0.0 | 0.00 | 0.00 | 0.00 | 58 | 1009.9 | |
| 20260509030016 | 16 | 0.0 | 0.0 | 0.00 | 0.00 | 0.00 | 57 | 1010.1 | |
| 20260509025016 | 16 | 0.0 | 0.0 | 0.00 | 0.00 | 0.00 | 58 | 1010.1 | |
| 20260509024036 | 16 | 0.0 | 0.0 | 0.00 | 0.00 | 0.00 | 58 | 1010.0 | |
| 20260509023036 | 16 | 0.0 | 0.0 | 0.00 | 0.00 | 0.00 | 59 | 1010.1 | |
| 20260509022016 | 16 | 0.0 | 0.0 | 0.00 | 0.00 | 0.00 | 59 | 1010.1 | |
| 20260509021016 | 16 | 0.0 | 0.0 | 0.00 | 0.00 | 0.00 | 58 | 1010.3 | |
| 20260509020016 | 16 | 0.0 | 0.0 | 0.00 | 0.00 | 0.00 | 57 | 1010.2 | |
| 20260509015036 | 16 | 0.0 | 3.2 | 0.00 | 0.00 | 0.00 | 56 | 1010.0 | |
| 20260509014016 | 17 | 0.0 | 3.2 | 0.00 | 0.00 | 0.00 | 55 | 1010.0 | |
| 20260509013016 | 17 | 225 | 1.6 | 3.2 | 0.00 | 0.00 | 0.00 | 55 | 1009.9 |
| 20260509012116 | 17 | 0.0 | 3.2 | 0.00 | 0.00 | 0.00 | 53 | 1009.8 | |
| 20260509011036 | 18 | 225 | 1.6 | 4.8 | 0.00 | 0.00 | 0.00 | 52 | 1009.9 |
| 20260509010016 | 18 | 248 | 1.6 | 3.2 | 0.00 | 0.00 | 0.00 | 51 | 1009.9 |
| 20260509005016 | 18 | 248 | 3.2 | 6.4 | 0.00 | 0.00 | 0.00 | 49 | 1009.8 |
| 20260509004016 | 19 | 248 | 3.2 | 9.7 | 0.00 | 0.00 | 0.00 | 48 | 1009.9 |
| 20260509003016 | 19 | 248 | 3.2 | 9.7 | 0.00 | 0.00 | 0.00 | 47 | 1009.8 |
| 20260509002016 | 20 | 248 | 3.2 | 8.0 | 0.00 | 0.00 | 0.00 | 46 | 1009.9 |
| 20260509001016 | 20 | 248 | 4.8 | 12.9 | 0.00 | 0.00 | 0.00 | 45 | 1009.9 |
| 20260509000016 | 20 | 248 | 6.4 | 11.3 | 0.00 | 0.00 | 0.00 | 43 | 1009.9 |
| 20260508235016 | 21 | 248 | 8.0 | 19.3 | 0.00 | 0.00 | 0.00 | 42 | 1009.8 |
| 20260508234016 | 21 | 248 | 8.0 | 19.3 | 0.00 | 0.00 | 0.00 | 42 | 1010.0 |
| 20260508233016 | 21 | 248 | 9.7 | 24.1 | 0.00 | 0.00 | 0.00 | 42 | 1010.0 |
| 20260508232016 | 21 | 248 | 8.0 | 20.9 | 0.00 | 0.00 | 0.00 | 41 | 1009.9 |
| 20260508231016 | 21 | 248 | 11.3 | 20.9 | 0.00 | 0.00 | 0.00 | 41 | 1010.0 |